| time (UTC) | temp F | wind direction | speed MPH | gust MPH | rain 1hr in | rain 24hr in | rain mn in | humidity % | barometer mb |
| 20260506045047 | 56 | 151 | 2.0 | 7.0 | 0.00 | 0.00 | 0.00 | 81 | 1008.3 |
| 20260506044554 | 56 | 210 | 3.0 | 7.0 | 0.00 | 0.00 | 0.00 | 81 | 1008.2 |
| 20260506044045 | 56 | 159 | 3.0 | 5.0 | 0.00 | 0.00 | 0.00 | 81 | 1008.1 |
| 20260506043548 | 56 | 161 | 3.0 | 4.0 | 0.00 | 0.00 | 0.00 | 81 | 1008.0 |
| 20260506043055 | 56 | 166 | 1.0 | 4.0 | 0.00 | 0.00 | 0.00 | 81 | 1008.1 |
| 20260506042546 | 56 | 173 | 0.0 | 6.0 | 0.00 | 0.00 | 0.00 | 81 | 1008.0 |
| 20260506042048 | 56 | 143 | 1.0 | 6.0 | 0.00 | 0.00 | 0.00 | 81 | 1007.9 |
| 20260506041554 | 56 | 151 | 3.0 | 5.0 | 0.00 | 0.00 | 0.00 | 81 | 1007.9 |
| 20260506041048 | 56 | 214 | 1.0 | 8.0 | 0.00 | 0.00 | 0.00 | 81 | 1008.2 |
| 20260506040545 | 56 | 206 | 1.0 | 8.0 | 0.00 | 0.00 | 0.00 | 81 | 1007.9 |
| 20260506040101 | 56 | 165 | 3.0 | 6.0 | 0.00 | 0.00 | 0.00 | 81 | 1008.0 |
| 20260506035548 | 56 | 204 | 2.0 | 7.0 | 0.00 | 0.00 | 0.00 | 80 | 1008.0 |
| 20260506035045 | 56 | 163 | 1.0 | 7.0 | 0.00 | 0.00 | 0.00 | 80 | 1008.1 |
| 20260506034551 | 57 | 201 | 3.0 | 7.0 | 0.00 | 0.00 | 0.00 | 80 | 1008.1 |
| 20260506034045 | 57 | 150 | 2.0 | 7.0 | 0.00 | 0.00 | 0.00 | 79 | 1007.9 |
| 20260506033546 | 57 | 179 | 2.0 | 6.0 | 0.00 | 0.00 | 0.00 | 79 | 1008.0 |
| 20260506033052 | 57 | 189 | 2.0 | 6.0 | 0.00 | 0.00 | 0.00 | 79 | 1007.8 |
| 20260506032549 | 57 | 214 | 3.0 | 6.0 | 0.00 | 0.00 | 0.00 | 79 | 1008.0 |
| 20260506032046 | 57 | 162 | 2.0 | 6.0 | 0.00 | 0.00 | 0.00 | 79 | 1007.8 |
| 20260506031553 | 57 | 162 | 3.0 | 6.0 | 0.00 | 0.00 | 0.00 | 79 | 1007.9 |
| 20260506031049 | 57 | 153 | 3.0 | 6.0 | 0.00 | 0.00 | 0.00 | 79 | 1007.9 |
| 20260506030548 | 57 | 178 | 3.0 | 6.0 | 0.00 | 0.00 | 0.00 | 79 | 1007.8 |
| 20260506030057 | 58 | 169 | 3.0 | 5.0 | 0.00 | 0.00 | 0.00 | 79 | 1007.8 |
| 20260506025548 | 58 | 168 | 3.0 | 5.0 | 0.00 | 0.00 | 0.00 | 79 | 1007.8 |
| 20260506025048 | 58 | 144 | 2.0 | 5.0 | 0.00 | 0.00 | 0.00 | 78 | 1007.8 |
| 20260506024557 | 58 | 159 | 3.0 | 5.0 | 0.00 | 0.00 | 0.00 | 78 | 1007.9 |
| 20260506024048 | 58 | 151 | 2.0 | 3.0 | 0.00 | 0.00 | 0.00 | 78 | 1007.9 |
| 20260506023546 | 58 | 153 | 1.0 | 2.0 | 0.00 | 0.00 | 0.00 | 78 | 1008.0 |
| 20260506023051 | 58 | 0 | 0.0 | 1.0 | 0.00 | 0.00 | 0.00 | 78 | 1008.0 |
| 20260506022548 | 59 | 0 | 0.0 | 2.0 | 0.00 | 0.00 | 0.00 | 77 | 1008.0 |
| 20260506022048 | 59 | 222 | 0.0 | 4.0 | 0.00 | 0.00 | 0.00 | 77 | 1008.1 |
| 20260506021601 | 59 | 0 | 1.0 | 4.0 | 0.00 | 0.00 | 0.00 | 76 | 1007.9 |
| 20260506021047 | 59 | 117 | 2.0 | 5.0 | 0.00 | 0.00 | 0.00 | 76 | 1007.9 |
| 20260506020548 | 59 | 0 | 0.0 | 5.0 | 0.00 | 0.00 | 0.00 | 76 | 1008.1 |
| 20260506020051 | 60 | 163 | 3.0 | 5.0 | 0.00 | 0.00 | 0.00 | 75 | 1008.1 |
| 20260506015552 | 60 | 180 | 1.0 | 3.0 | 0.00 | 0.00 | 0.00 | 75 | 1008.3 |
| 20260506015050 | 60 | 144 | 1.0 | 3.0 | 0.00 | 0.00 | 0.00 | 75 | 1008.2 |
| 20260506014551 | 60 | 0 | 0.0 | 2.0 | 0.00 | 0.00 | 0.00 | 74 | 1008.1 |
| 20260506014048 | 61 | 148 | 0.0 | 2.0 | 0.00 | 0.00 | 0.00 | 74 | 1008.1 |
| 20260506013545 | 61 | 138 | 1.0 | 2.0 | 0.00 | 0.00 | 0.00 | 73 | 1008.1 |
| 20260506013059 | 61 | 0 | 0.0 | 0.0 | 0.00 | 0.00 | 0.00 | 73 | 1008.2 |
| 20260506012549 | 62 | 0 | 0.0 | 0.0 | 0.00 | 0.00 | 0.00 | 72 | 1008.2 |
| 20260506012049 | 62 | 0 | 0.0 | 0.0 | 0.00 | 0.00 | 0.00 | 72 | 1008.1 |
| 20260506011601 | 62 | 0 | 0.0 | 0.0 | 0.00 | 0.00 | 0.00 | 72 | 1008.0 |
| 20260506011048 | 62 | 0 | 0.0 | 0.0 | 0.00 | 0.00 | 0.00 | 71 | 1007.9 |
| 20260506010548 | 62 | 0 | 0.0 | 2.0 | 0.00 | 0.00 | 0.00 | 71 | 1007.9 |
| 20260506010053 | 63 | 0 | 0.0 | 3.0 | 0.00 | 0.00 | 0.00 | 70 | 1007.8 |
| 20260506005547 | 63 | 165 | 0.0 | 3.0 | 0.00 | 0.00 | 0.00 | 70 | 1007.7 |
| 20260506005047 | 63 | 154 | 2.0 | 3.0 | 0.00 | 0.00 | 0.00 | 69 | 1007.6 |
| 20260506004546 | 63 | 86 | 2.0 | 3.0 | 0.00 | 0.00 | 0.00 | 69 | 1007.6 |
| 20260506004046 | 64 | 166 | 1.0 | 2.0 | 0.00 | 0.00 | 0.00 | 69 | 1007.8 |
| 20260506003549 | 64 | 91 | 1.0 | 3.0 | 0.00 | 0.00 | 0.00 | 69 | 1007.6 |
| 20260506003049 | 64 | 105 | 2.0 | 3.0 | 0.00 | 0.00 | 0.00 | 70 | 1007.5 |
| 20260506002545 | 64 | 0 | 0.0 | 2.0 | 0.00 | 0.00 | 0.00 | 69 | 1007.7 |
| 20260506002045 | 64 | 307 | 0.0 | 2.0 | 0.00 | 0.00 | 0.00 | 68 | 1007.8 |
| 20260506001551 | 64 | 332 | 0.0 | 2.0 | 0.00 | 0.00 | 0.00 | 68 | 1007.4 |
| 20260506001048 | 64 | 0 | 0.0 | 4.0 | 0.00 | 0.00 | 0.00 | 67 | 1007.1 |
| 20260506000548 | 65 | 66 | 1.0 | 6.0 | 0.00 | 0.00 | 0.00 | 67 | 1006.9 |
| 20260506000048 | 65 | 155 | 3.0 | 6.0 | 0.00 | 0.00 | 0.00 | 67 | 1006.6 |
| 20260505235548 | 65 | 153 | 3.0 | 5.0 | 0.00 | 0.00 | 0.00 | 67 | 1006.4 |
| 20260505235130 | 65 | 154 | 0.0 | 4.0 | 0.00 | 0.00 | 0.00 | 66 | 1006.4 |
| 20260505234606 | 65 | 68 | 2.0 | 7.0 | 0.00 | 0.00 | 0.00 | 67 | 1006.3 |
| 20260505234047 | 65 | 65 | 1.0 | 7.0 | 0.00 | 0.00 | 0.00 | 67 | 1006.2 |
| 20260505233547 | 65 | 158 | 5.0 | 7.0 | 0.00 | 0.00 | 0.00 | 66 | 1006.2 |
| 20260505233058 | 66 | 135 | 3.0 | 6.0 | 0.00 | 0.00 | 0.00 | 66 | 1006.0 |
| 20260505232547 | 66 | 105 | 2.0 | 5.0 | 0.00 | 0.00 | 0.00 | 66 | 1005.9 |
| 20260505232047 | 66 | 102 | 3.0 | 5.0 | 0.00 | 0.00 | 0.00 | 66 | 1006.0 |
| 20260505231607 | 66 | 133 | 1.0 | 6.0 | 0.00 | 0.00 | 0.00 | 65 | 1006.2 |
| 20260505231045 | 66 | 218 | 2.0 | 6.0 | 0.00 | 0.00 | 0.00 | 65 | 1006.1 |
| 20260505230545 | 65 | 141 | 1.0 | 13.0 | 0.00 | 0.00 | 0.00 | 67 | 1005.8 |
| 20260505230100 | 65 | 0 | 3.0 | 13.0 | 0.00 | 0.00 | 0.00 | 67 | 1006.0 |
| 20260505225547 | 64 | 345 | 5.0 | 16.0 | 0.00 | 0.00 | 0.00 | 68 | 1006.4 |
| 20260505225047 | 64 | 195 | 7.0 | 16.0 | 0.00 | 0.00 | 0.00 | 67 | 1004.7 |
| 20260505224554 | 64 | 193 | 8.0 | 17.0 | 0.00 | 0.00 | 0.00 | 67 | 1004.4 |
| 20260505224050 | 64 | 224 | 9.0 | 17.0 | 0.00 | 0.00 | 0.00 | 67 | 1004.4 |
| 20260505223546 | 64 | 172 | 10.0 | 17.0 | 0.00 | 0.00 | 0.00 | 67 | 1004.4 |
| 20260505223103 | 65 | 218 | 8.0 | 18.0 | 0.00 | 0.00 | 0.00 | 67 | 1004.3 |
| 20260505222548 | 65 | 207 | 8.0 | 18.0 | 0.00 | 0.00 | 0.00 | 66 | 1004.3 |
| 20260505222051 | 65 | 192 | 11.0 | 22.0 | 0.00 | 0.00 | 0.00 | 66 | 1004.2 |
| 20260505221558 | 65 | 186 | 11.0 | 22.0 | 0.00 | 0.00 | 0.00 | 66 | 1004.2 |
| 20260505221048 | 65 | 227 | 11.0 | 20.0 | 0.00 | 0.00 | 0.00 | 66 | 1004.1 |
| 20260505220546 | 65 | 169 | 9.0 | 24.0 | 0.00 | 0.00 | 0.00 | 66 | 1004.1 |
| 20260505220057 | 65 | 197 | 12.0 | 25.0 | 0.00 | 0.00 | 0.00 | 66 | 1004.1 |
| 20260505215547 | 65 | 205 | 11.0 | 25.0 | 0.00 | 0.00 | 0.00 | 67 | 1003.9 |
| 20260505215047 | 65 | 167 | 12.0 | 25.0 | 0.00 | 0.00 | 0.00 | 67 | 1004.0 |
| 20260505214614 | 65 | 165 | 11.0 | 26.0 | 0.00 | 0.00 | 0.00 | 67 | 1004.1 |
| 20260505214046 | 64 | 196 | 12.0 | 26.0 | 0.00 | 0.00 | 0.00 | 67 | 1004.1 |
| 20260505213545 | 64 | 181 | 14.0 | 26.0 | 0.00 | 0.00 | 0.00 | 67 | 1003.9 |
| 20260505213057 | 64 | 184 | 14.0 | 26.0 | 0.00 | 0.00 | 0.00 | 67 | 1004.0 |
| 20260505212545 | 64 | 153 | 14.0 | 26.0 | 0.00 | 0.00 | 0.00 | 67 | 1004.0 |
| 20260505212048 | 65 | 157 | 11.0 | 25.0 | 0.00 | 0.00 | 0.00 | 67 | 1004.0 |
| 20260505211603 | 65 | 148 | 13.0 | 27.0 | 0.00 | 0.00 | 0.00 | 68 | 1004.0 |
| 20260505211047 | 65 | 133 | 16.0 | 27.0 | 0.00 | 0.00 | 0.00 | 66 | 1004.0 |
| 20260505210546 | 65 | 205 | 14.0 | 27.0 | 0.00 | 0.00 | 0.00 | 66 | 1004.0 |
| 20260505210056 | 66 | 152 | 16.0 | 27.0 | 0.00 | 0.00 | 0.00 | 65 | 1004.0 |
| 20260505205547 | 66 | 184 | 12.0 | 29.0 | 0.00 | 0.00 | 0.00 | 64 | 1003.9 |
| 20260505205048 | 67 | 152 | 15.0 | 29.0 | 0.00 | 0.00 | 0.00 | 63 | 1003.9 |
| 20260505204600 | 68 | 160 | 15.0 | 29.0 | 0.00 | 0.00 | 0.00 | 62 | 1003.9 |
| 20260505204046 | 68 | 187 | 15.0 | 22.0 | 0.00 | 0.00 | 0.00 | 62 | 1003.8 |
| 20260505203550 | 68 | 227 | 12.0 | 22.0 | 0.00 | 0.00 | 0.00 | 62 | 1004.2 |
| 20260505203059 | 68 | 217 | 12.0 | 24.0 | 0.00 | 0.00 | 0.00 | 62 | 1004.2 |
| 20260505202547 | 68 | 226 | 12.0 | 28.0 | 0.00 | 0.00 | 0.00 | 63 | 1004.1 |
| 20260505202045 | 68 | 189 | 11.0 | 28.0 | 0.00 | 0.00 | 0.00 | 64 | 1004.0 |
| 20260505201601 | 68 | 190 | 11.0 | 27.0 | 0.00 | 0.00 | 0.00 | 63 | 1004.1 |
| 20260505201045 | 68 | 185 | 16.0 | 27.0 | 0.00 | 0.00 | 0.00 | 62 | 1004.1 |
| 20260505200545 | 69 | 194 | 16.0 | 27.0 | 0.00 | 0.00 | 0.00 | 61 | 1004.2 |
| 20260505200106 | 69 | 180 | 13.0 | 25.0 | 0.00 | 0.00 | 0.00 | 62 | 1004.1 |
| 20260505195546 | 68 | 147 | 13.0 | 23.0 | 0.00 | 0.00 | 0.00 | 63 | 1004.3 |
| 20260505195049 | 68 | 162 | 13.0 | 24.0 | 0.00 | 0.00 | 0.00 | 65 | 1004.2 |
| 20260505194557 | 68 | 180 | 13.0 | 24.0 | 0.00 | 0.00 | 0.00 | 65 | 1004.2 |
| 20260505194045 | 68 | 172 | 11.0 | 24.0 | 0.00 | 0.00 | 0.00 | 65 | 1004.5 |
| 20260505193545 | 68 | 197 | 10.0 | 30.0 | 0.00 | 0.00 | 0.00 | 64 | 1004.4 |
| 20260505193057 | 67 | 153 | 14.0 | 30.0 | 0.00 | 0.00 | 0.00 | 64 | 1004.6 |
| 20260505192546 | 68 | 155 | 14.0 | 25.0 | 0.00 | 0.00 | 0.00 | 64 | 1004.6 |
| 20260505192048 | 68 | 157 | 15.0 | 23.0 | 0.00 | 0.00 | 0.00 | 64 | 1004.7 |
| 20260505191550 | 68 | 165 | 14.0 | 28.0 | 0.00 | 0.00 | 0.00 | 64 | 1004.9 |
| 20260505191049 | 68 | 146 | 16.0 | 28.0 | 0.00 | 0.00 | 0.00 | 65 | 1004.9 |
| 20260505190545 | 67 | 165 | 15.0 | 23.0 | 0.00 | 0.00 | 0.00 | 64 | 1005.1 |
| 20260505190051 | 68 | 152 | 12.0 | 26.0 | 0.00 | 0.00 | 0.00 | 64 | 1005.2 |
| 20260505185548 | 68 | 216 | 9.0 | 26.0 | 0.00 | 0.00 | 0.00 | 65 | 1005.2 |
| 20260505185047 | 68 | 158 | 17.0 | 26.0 | 0.00 | 0.00 | 0.00 | 64 | 1005.3 |
| 20260505184554 | 68 | 198 | 13.0 | 26.0 | 0.00 | 0.00 | 0.00 | 63 | 1005.3 |
| 20260505184048 | 68 | 155 | 12.0 | 25.0 | 0.00 | 0.00 | 0.00 | 63 | 1005.2 |
| 20260505183551 | 68 | 136 | 9.0 | 24.0 | 0.00 | 0.00 | 0.00 | 63 | 1005.4 |
| 20260505183103 | 68 | 205 | 12.0 | 25.0 | 0.00 | 0.00 | 0.00 | 63 | 1005.3 |
| 20260505182549 | 68 | 157 | 13.0 | 28.0 | 0.00 | 0.00 | 0.00 | 63 | 1005.6 |
| 20260505182048 | 68 | 155 | 17.0 | 28.0 | 0.00 | 0.00 | 0.00 | 64 | 1005.5 |
| 20260505181552 | 68 | 158 | 11.0 | 31.0 | 0.00 | 0.00 | 0.00 | 65 | 1005.5 |
| 20260505181048 | 67 | 158 | 14.0 | 31.0 | 0.00 | 0.00 | 0.00 | 64 | 1005.6 |
| 20260505180544 | 67 | 225 | 14.0 | 30.0 | 0.00 | 0.00 | 0.00 | 64 | 1005.5 |
| 20260505180057 | 67 | 183 | 19.0 | 31.0 | 0.00 | 0.00 | 0.00 | 63 | 1005.6 |
| 20260505175546 | 68 | 162 | 18.0 | 31.0 | 0.00 | 0.00 | 0.00 | 64 | 1005.5 |
| 20260505175045 | 69 | 172 | 17.0 | 30.0 | 0.00 | 0.00 | 0.00 | 61 | 1005.3 |
| 20260505174559 | 70 | 181 | 14.0 | 22.0 | 0.00 | 0.00 | 0.00 | 61 | 1005.5 |
| 20260505174046 | 70 | 178 | 11.0 | 22.0 | 0.00 | 0.00 | 0.00 | 62 | 1005.6 |
| 20260505173546 | 70 | 209 | 10.0 | 18.0 | 0.00 | 0.00 | 0.00 | 63 | 1005.7 |
| 20260505173050 | 69 | 202 | 12.0 | 25.0 | 0.00 | 0.00 | 0.00 | 63 | 1005.8 |
| 20260505172545 | 68 | 160 | 17.0 | 25.0 | 0.00 | 0.00 | 0.00 | 62 | 1005.8 |
| 20260505172048 | 69 | 165 | 16.0 | 26.0 | 0.00 | 0.00 | 0.00 | 61 | 1005.8 |
| 20260505171551 | 70 | 140 | 17.0 | 26.0 | 0.00 | 0.00 | 0.00 | 59 | 1005.8 |
| 20260505171046 | 71 | 169 | 13.0 | 23.0 | 0.00 | 0.00 | 0.00 | 60 | 1005.9 |
| 20260505170547 | 71 | 169 | 9.0 | 23.0 | 0.00 | 0.00 | 0.00 | 59 | 1005.9 |
| 20260505170057 | 72 | 185 | 14.0 | 19.0 | 0.00 | 0.00 | 0.00 | 57 | 1006.2 |
| 20260505165547 | 73 | 160 | 10.0 | 16.0 | 0.00 | 0.00 | 0.00 | 56 | 1006.3 |
| 20260505165048 | 73 | 134 | 8.0 | 20.0 | 0.00 | 0.00 | 0.00 | 56 | 1006.4 |
| 20260505164606 | 73 | 153 | 6.0 | 20.0 | 0.00 | 0.00 | 0.00 | 57 | 1006.5 |
| 20260505164047 | 73 | 145 | 13.0 | 20.0 | 0.00 | 0.00 | 0.00 | 55 | 1006.5 |
| 20260505163547 | 74 | 161 | 11.0 | 17.0 | 0.00 | 0.00 | 0.00 | 54 | 1006.7 |
| 20260505163055 | 75 | 143 | 7.0 | 17.0 | 0.00 | 0.00 | 0.00 | 54 | 1006.7 |
| 20260505162549 | 75 | 162 | 9.0 | 16.0 | 0.00 | 0.00 | 0.00 | 54 | 1006.6 |
| 20260505162046 | 75 | 151 | 6.0 | 16.0 | 0.00 | 0.00 | 0.00 | 54 | 1006.7 |
| 20260505161604 | 75 | 177 | 9.0 | 15.0 | 0.00 | 0.00 | 0.00 | 52 | 1006.8 |
| 20260505161046 | 75 | 226 | 9.0 | 23.0 | 0.00 | 0.00 | 0.00 | 51 | 1006.8 |
| 20260505160547 | 75 | 215 | 10.0 | 24.0 | 0.00 | 0.00 | 0.00 | 52 | 1007.1 |
| 20260505153103 | 73 | 177 | 7.0 | 13.0 | 0.00 | 0.00 | 0.00 | 55 | 1007.6 |
| 20260505152546 | 72 | 217 | 5.0 | 15.0 | 0.00 | 0.00 | 0.00 | 58 | 1007.8 |
| 20260505152048 | 71 | 214 | 7.0 | 15.0 | 0.00 | 0.00 | 0.00 | 58 | 1007.7 |
| 20260505151607 | 71 | 146 | 6.0 | 13.0 | 0.00 | 0.00 | 0.00 | 58 | 1007.7 |
| 20260505151048 | 70 | 137 | 8.0 | 12.0 | 0.00 | 0.00 | 0.00 | 59 | 1007.8 |
| 20260505150548 | 70 | 184 | 6.0 | 11.0 | 0.00 | 0.00 | 0.00 | 61 | 1007.8 |
| 20260505140547 | 66 | 195 | 6.0 | 13.0 | 0.00 | 0.00 | 0.00 | 64 | 1007.4 |
| 20260505140110 | 67 | 163 | 7.0 | 13.0 | 0.00 | 0.00 | 0.00 | 62 | 1007.5 |
| 20260505124549 | 63 | 254 | 8.0 | 13.0 | 0.00 | 0.00 | 0.00 | 67 | 1008.2 |
| 20260505124047 | 61 | 212 | 4.0 | 8.0 | 0.00 | 0.00 | 0.00 | 69 | 1008.1 |
| 20260505123546 | 61 | 199 | 3.0 | 8.0 | 0.00 | 0.00 | 0.00 | 69 | 1008.0 |
| 20260505123051 | 61 | 219 | 4.0 | 8.0 | 0.00 | 0.00 | 0.00 | 69 | 1007.8 |
| 20260505122547 | 61 | 211 | 3.0 | 8.0 | 0.00 | 0.00 | 0.00 | 70 | 1007.8 |
| 20260505122048 | 61 | 166 | 5.0 | 8.0 | 0.00 | 0.00 | 0.00 | 69 | 1007.7 |
| 20260505121549 | 60 | 176 | 3.0 | 6.0 | 0.00 | 0.00 | 0.00 | 70 | 1007.8 |
| 20260505121048 | 59 | 177 | 3.0 | 9.0 | 0.00 | 0.00 | 0.00 | 70 | 1007.8 |
| 20260505120546 | 59 | 188 | 3.0 | 9.0 | 0.00 | 0.00 | 0.00 | 72 | 1008.1 |
| 20260505120055 | 58 | 208 | 3.0 | 5.0 | 0.00 | 0.00 | 0.00 | 73 | 1007.9 |
| 20260505115545 | 58 | 194 | 2.0 | 5.0 | 0.00 | 0.00 | 0.00 | 73 | 1007.9 |
| 20260505115048 | 57 | 186 | 1.0 | 6.0 | 0.00 | 0.00 | 0.00 | 74 | 1007.9 |
| 20260505114559 | 56 | 155 | 1.0 | 7.0 | 0.00 | 0.00 | 0.00 | 76 | 1008.0 |
| 20260505114047 | 56 | 170 | 2.0 | 7.0 | 0.00 | 0.00 | 0.00 | 77 | 1008.2 |
| 20260505113549 | 55 | 229 | 3.0 | 8.0 | 0.00 | 0.00 | 0.00 | 78 | 1008.3 |
| 20260505113100 | 55 | 222 | 2.0 | 8.0 | 0.00 | 0.00 | 0.00 | 79 | 1008.3 |
| 20260505112546 | 54 | 212 | 3.0 | 8.0 | 0.00 | 0.00 | 0.00 | 78 | 1008.5 |
| 20260505112047 | 54 | 181 | 2.0 | 6.0 | 0.00 | 0.00 | 0.00 | 80 | 1008.4 |
| 20260505111553 | 53 | 224 | 2.0 | 5.0 | 0.00 | 0.00 | 0.00 | 81 | 1008.5 |
| 20260505111048 | 53 | 210 | 1.0 | 2.0 | 0.00 | 0.00 | 0.00 | 81 | 1008.3 |
| 20260505110545 | 52 | 200 | 0.0 | 2.0 | 0.00 | 0.00 | 0.00 | 82 | 1008.5 |
| 20260505102045 | 49 | 0 | 0.0 | 2.0 | 0.00 | 0.00 | 0.00 | 85 | 1008.3 |
| 20260505101553 | 49 | 0 | 0.0 | 2.0 | 0.00 | 0.00 | 0.00 | 85 | 1008.3 |
| 20260505101048 | 49 | 0 | 0.0 | 2.0 | 0.00 | 0.00 | 0.00 | 85 | 1008.4 |
| 20260505100544 | 49 | 208 | 0.0 | 1.0 | 0.00 | 0.00 | 0.00 | 84 | 1008.5 |
| 20260505100049 | 49 | 223 | 0.0 | 1.0 | 0.00 | 0.00 | 0.00 | 84 | 1008.4 |
| 20260505095547 | 49 | 0 | 0.0 | 1.0 | 0.00 | 0.00 | 0.00 | 83 | 1008.4 |
| 20260505095047 | 49 | 183 | 0.0 | 1.0 | 0.00 | 0.00 | 0.00 | 83 | 1008.3 |
| 20260505094546 | 49 | 0 | 0.0 | 1.0 | 0.00 | 0.00 | 0.00 | 82 | 1008.4 |
| 20260505094048 | 50 | 0 | 0.0 | 2.0 | 0.00 | 0.00 | 0.00 | 82 | 1008.3 |
| 20260505093548 | 50 | 0 | 0.0 | 2.0 | 0.00 | 0.00 | 0.00 | 81 | 1008.4 |
| 20260505093057 | 50 | 210 | 0.0 | 1.0 | 0.00 | 0.00 | 0.00 | 81 | 1008.3 |
| 20260505092547 | 50 | 203 | 0.0 | 3.0 | 0.00 | 0.00 | 0.00 | 80 | 1008.2 |
| 20260505092046 | 50 | 0 | 0.0 | 3.0 | 0.00 | 0.00 | 0.00 | 80 | 1008.3 |
| 20260505091603 | 51 | 0 | 0.0 | 3.0 | 0.00 | 0.00 | 0.00 | 79 | 1008.3 |
| 20260505091050 | 51 | 0 | 0.0 | 4.0 | 0.00 | 0.00 | 0.00 | 78 | 1008.3 |
| 20260505090545 | 51 | 192 | 2.0 | 4.0 | 0.00 | 0.00 | 0.00 | 78 | 1008.3 |
| 20260505090052 | 51 | 167 | 2.0 | 4.0 | 0.00 | 0.00 | 0.00 | 77 | 1008.5 |
| 20260505085546 | 52 | 156 | 2.0 | 3.0 | 0.00 | 0.00 | 0.00 | 75 | 1008.4 |
| 20260505085047 | 52 | 153 | 1.0 | 2.0 | 0.00 | 0.00 | 0.00 | 74 | 1008.5 |
| 20260505084555 | 52 | 150 | 1.0 | 2.0 | 0.00 | 0.00 | 0.00 | 74 | 1008.6 |
| 20260505084049 | 53 | 191 | 0.0 | 2.0 | 0.00 | 0.00 | 0.00 | 73 | 1008.5 |
| 20260505083547 | 53 | 0 | 0.0 | 2.0 | 0.00 | 0.00 | 0.00 | 73 | 1008.7 |
| 20260505083059 | 53 | 162 | 1.0 | 2.0 | 0.00 | 0.00 | 0.00 | 72 | 1008.6 |
| 20260505082548 | 53 | 144 | 0.0 | 2.0 | 0.00 | 0.00 | 0.00 | 71 | 1008.7 |
| 20260505082049 | 53 | 0 | 0.0 | 1.0 | 0.00 | 0.00 | 0.00 | 71 | 1008.7 |
| 20260505081550 | 54 | 148 | 0.0 | 1.0 | 0.00 | 0.00 | 0.00 | 70 | 1008.6 |
| 20260505081050 | 54 | 0 | 0.0 | 1.0 | 0.00 | 0.00 | 0.00 | 69 | 1008.6 |
| 20260505080545 | 54 | 170 | 0.0 | 1.0 | 0.00 | 0.00 | 0.00 | 69 | 1008.8 |
| 20260505080052 | 54 | 0 | 0.0 | 3.0 | 0.00 | 0.00 | 0.00 | 69 | 1008.7 |
| 20260505075545 | 54 | 0 | 0.0 | 3.0 | 0.00 | 0.00 | 0.00 | 69 | 1008.7 |
| 20260505075045 | 55 | 0 | 0.0 | 4.0 | 0.00 | 0.00 | 0.00 | 68 | 1008.7 |
| 20260505074549 | 55 | 231 | 0.0 | 4.0 | 0.00 | 0.00 | 0.00 | 68 | 1008.6 |
| 20260505074045 | 55 | 205 | 0.0 | 4.0 | 0.00 | 0.00 | 0.00 | 68 | 1008.7 |
| 20260505073547 | 55 | 0 | 0.0 | 3.0 | 0.00 | 0.00 | 0.00 | 68 | 1008.6 |
| 20260505073057 | 55 | 0 | 0.0 | 3.0 | 0.00 | 0.00 | 0.00 | 67 | 1008.8 |
| 20260505072548 | 55 | 219 | 0.0 | 3.0 | 0.00 | 0.00 | 0.00 | 67 | 1008.8 |
| 20260505072046 | 55 | 175 | 1.0 | 3.0 | 0.00 | 0.00 | 0.00 | 67 | 1008.7 |
| 20260505071558 | 55 | 243 | 0.0 | 3.0 | 0.00 | 0.00 | 0.00 | 67 | 1008.7 |
| 20260505071045 | 55 | 258 | 0.0 | 6.0 | 0.00 | 0.00 | 0.00 | 66 | 1008.7 |
| 20260505070552 | 56 | 233 | 1.0 | 6.0 | 0.00 | 0.00 | 0.00 | 66 | 1008.7 |
| 20260505070059 | 56 | 222 | 3.0 | 7.0 | 0.00 | 0.00 | 0.00 | 65 | 1008.6 |
| 20260505065552 | 56 | 226 | 2.0 | 8.0 | 0.00 | 0.00 | 0.00 | 65 | 1008.7 |
| 20260505065047 | 56 | 231 | 4.0 | 8.0 | 0.00 | 0.00 | 0.00 | 65 | 1008.6 |
| 20260505064553 | 56 | 249 | 3.0 | 7.0 | 0.00 | 0.00 | 0.00 | 65 | 1008.6 |
| 20260505064048 | 56 | 225 | 3.0 | 9.0 | 0.00 | 0.00 | 0.00 | 65 | 1008.6 |
| 20260505063545 | 57 | 263 | 3.0 | 9.0 | 0.00 | 0.00 | 0.00 | 64 | 1008.6 |
| 20260505063050 | 57 | 230 | 5.0 | 8.0 | 0.00 | 0.00 | 0.00 | 64 | 1008.6 |
| 20260505062546 | 57 | 241 | 4.0 | 9.0 | 0.00 | 0.00 | 0.00 | 63 | 1008.6 |
| 20260505062051 | 57 | 247 | 4.0 | 9.0 | 0.00 | 0.00 | 0.00 | 63 | 1008.5 |
| 20260505061550 | 57 | 237 | 4.0 | 12.0 | 0.00 | 0.00 | 0.00 | 63 | 1008.5 |
| 20260505061045 | 57 | 235 | 5.0 | 12.0 | 0.00 | 0.00 | 0.00 | 63 | 1008.6 |
| 20260505060545 | 57 | 238 | 7.0 | 15.0 | 0.00 | 0.00 | 0.00 | 62 | 1008.5 |
| 20260505060054 | 58 | 232 | 6.0 | 15.0 | 0.00 | 0.00 | 0.00 | 62 | 1008.5 |
| 20260505055548 | 58 | 257 | 7.0 | 15.0 | 0.00 | 0.00 | 0.00 | 62 | 1008.5 |
| 20260505055045 | 58 | 205 | 7.0 | 15.0 | 0.00 | 0.00 | 0.00 | 62 | 1008.5 |
| 20260505054554 | 58 | 229 | 8.0 | 14.0 | 0.00 | 0.00 | 0.00 | 61 | 1008.5 |
| 20260505054044 | 58 | 231 | 6.0 | 14.0 | 0.00 | 0.00 | 0.00 | 60 | 1008.5 |
| 20260505053547 | 58 | 214 | 8.0 | 14.0 | 0.00 | 0.00 | 0.00 | 60 | 1008.5 |
| 20260505053056 | 58 | 269 | 5.0 | 12.0 | 0.00 | 0.00 | 0.00 | 60 | 1008.6 |
| 20260505052549 | 59 | 229 | 7.0 | 13.0 | 0.00 | 0.00 | 0.00 | 59 | 1008.5 |
| 20260505052046 | 59 | 190 | 9.0 | 14.0 | 0.00 | 0.00 | 0.00 | 59 | 1008.7 |
| 20260505051604 | 59 | 257 | 9.0 | 17.0 | 0.00 | 0.00 | 0.00 | 59 | 1008.5 |
| 20260505051047 | 59 | 250 | 8.0 | 17.0 | 0.00 | 0.00 | 0.00 | 59 | 1008.4 |
| 20260505050551 | 59 | 221 | 8.0 | 15.0 | 0.00 | 0.00 | 0.00 | 59 | 1008.6 |
| 20260505050104 | 59 | 205 | 7.0 | 15.0 | 0.00 | 0.00 | 0.00 | 58 | 1008.6 |